This is the latest recevied weather packets stored in our database for station/object W5MAI. If no packets are shown the sender has not sent any weather packets the latest 10 day(s).
| Time | Temp. | Humidity | Pressure | Rain* | Wind** | Luminosity | Snow |
|---|---|---|---|---|---|---|---|
| 1788279812 | 31.67° C | 58% | 1018.9 hPa | 0 mm | - | 729 W/m² | - |
| 1788279226 | 31.67° C | 56% | 1019 hPa | 0 mm | - | 707 W/m² | - |
| 1788278634 | 31.11° C | 59% | 1019.1 hPa | 0 mm | - | 680 W/m² | - |
| 1788278044 | 30.56° C | 63% | 1019 hPa | 0 mm | - | 657 W/m² | - |
| 1788277452 | 30.56° C | 62% | 1019 hPa | 0 mm | - | 624 W/m² | - |
| 1788276844 | 30.56° C | 64% | 1018.9 hPa | 0 mm | - | 596 W/m² | - |
| 1788276232 | 29.44° C | 71% | 1019 hPa | 0 mm | - | 561 W/m² | - |
| 1788275621 | 28.89° C | 73% | 1019 hPa | 0 mm | - | 529 W/m² | - |
| 1788275029 | 28.89° C | 73% | 1018.9 hPa | 0 mm | - | 487 W/m² | - |
| 1788274417 | 28.89° C | 74% | 1018.9 hPa | 0 mm | - | 461 W/m² | - |
| 1788273847 | 28.89° C | 75% | 1019 hPa | 0 mm | - | 432 W/m² | - |
| 1788273239 | 28.89° C | 75% | 1019.1 hPa | 0 mm | - | 394 W/m² | - |
| 1788272649 | 28.33° C | 78% | 1019 hPa | 0 mm | - | 353 W/m² | - |
| 1788272037 | 27.78° C | 80% | 1019.2 hPa | 0 mm | - | 306 W/m² | - |
| 1788271424 | 27.22° C | 82% | 1019.1 hPa | 0 mm | - | 251 W/m² | - |
| 1788270811 | 26.67° C | 83% | 1019.3 hPa | 0 mm | - | 207 W/m² | - |
| 1788270261 | 26.11° C | 84% | 1019.1 hPa | 0 mm | - | 183 W/m² | - |
| 1788269609 | 25° C | 86% | 1019.1 hPa | 0 mm | - | 158 W/m² | - |
| 1788268459 | 23.89° C | 91% | 1019 hPa | 0 mm | - | 90 W/m² | - |
| 1788267837 | 22.78° C | 93% | 1018.8 hPa | 0 mm | - | 65 W/m² | - |
| 1788267223 | 22.22° C | 93% | 1018.7 hPa | 0 mm | - | 47 W/m² | - |
| 1788266652 | 22.22° C | 93% | 1018.5 hPa | 0 mm | - | 30 W/m² | - |
| 1788266030 | 21.67° C | 92% | 1018.4 hPa | 0 mm | - | 18 W/m² | - |
| 1788265412 | 22.22° C | 92% | 1018.3 hPa | 0 mm | - | 11 W/m² | - |
| 1788264852 | 22.22° C | 92% | 1018.2 hPa | 0 mm | - | 0 W/m² | - |
* Rain latest hour (hover to see other rain measurements)
** Current wind speed in m/s (hover to see current wind gust speed)